Flag for U.S.A. Weather past 2 weeks in Pueblo, Colorado, U.S.A.

Now
68 °F

Passing clouds.


Feels Like: 68 °F
Forecast: 50 / 68 °F
Wind: 14 mph from Northeast

Location: Pueblo Memorial Airport

Current Time: May 3, 2015 at 7:19:12 PM

Latest Report: May 3, 2015 at 6:53 PM


Visibility: 10 mi

Pressure: 29.79 "Hg

Humidity: 36%

Dew point: 40 °F

Location of PuebloLocation

Historic Weather in Pueblo — Graph

°F

Pueblo temperature yesterday

Maximum temperature yesterday: 80 °F (at 1:53 PM)
Minimum temperature yesterday: 48 °F (at 6:53 AM)
Average temperature yesterday: 63 °F

Past Weeks' High & Low Weather Summary

 TemperatureHumidityPressure
High81 °F (Apr 30, 1:53 PM)97% (Apr 26, 5:53 PM)30.30 "Hg (Apr 26, 5:53 PM)
Low34 °F (Apr 20, 6:53 AM)12% (Apr 25, 3:53 PM)29.47 "Hg (Apr 24, 1:53 PM)
Average55 °F56%29.87 "Hg
* Reported Apr 18 5:53 PM — May 3 5:53 PM, Pueblo, Weather by CustomWeather, © 2015

Note: Actual official high and low records may vary slightly from our data, if they occured in-between our weather recording intervals... More about our weather records

Advertising

Pueblo weather history for previous 24 hours

 ConditionsComfort  
Time TempWeatherWind HumidityBarometerVisibility
5:53 PM
Sun, May 3
71 °FScattered clouds.20 mph31%29.78 "Hg10 mi
4:53 PM74 °FPartly sunny.17 mph25%29.77 "Hg10 mi
3:53 PM74 °FPassing clouds.17 mph28%29.77 "Hg10 mi
2:53 PM75 °FOvercast.23 mph22%29.76 "Hg10 mi
1:53 PM80 °FSunny.8 mph17%29.73 "Hg9 mi
12:53 PM80 °FSunny.No wind16%29.75 "Hg10 mi
11:53 AM81 °FSunny.10 mph16%29.75 "Hg10 mi
10:53 AM78 °FSunny.9 mph19%29.75 "Hg10 mi
9:53 AM74 °FSunny.14 mph25%29.77 "Hg10 mi
8:53 AM64 °FSunny.3 mph47%29.80 "Hg10 mi
7:53 AM58 °FSunny.7 mph54%29.81 "Hg10 mi
6:53 AM52 °FClear.6 mph66%29.80 "Hg10 mi
5:53 AM50 °FClear.6 mph71%29.78 "Hg10 mi
4:53 AM50 °FClear.9 mph74%29.78 "Hg10 mi
3:53 AM50 °FClear.8 mph80%29.78 "Hg10 mi
2:53 AM51 °FClear.3 mph77%29.79 "Hg10 mi
1:53 AM52 °FClear.6 mph72%29.80 "Hg10 mi
12:53 AM52 °FClear.7 mph75%29.83 "Hg10 mi
11:53 PM
Sat, May 2
58 °FPassing clouds.10 mph58%29.81 "Hg10 mi
10:53 PM59 °FClear.7 mph56%29.83 "Hg10 mi
9:53 PM59 °FClear.7 mph58%29.82 "Hg10 mi
8:53 PM60 °FClear.No wind58%29.79 "Hg10 mi
7:53 PM62 °FSunny.9 mph54%29.78 "Hg10 mi
Weather by CustomWeather, © 2015

See weather overviewHow to use our weather pages